Location: Podia
(1.5569°N, 32.3469°E)
Time: 21:03:03
(UTC+00:00)

S-56A Canister/Altair - Pass Details

Date: 04 October 2020
Orbit: 632 x 2500 km, 38.9° (Epoch: 20 October)

Event Time Altitude Azimuth Distance (km) Brightness Sun altitude
Rises 16:26:11 0° 329° (NNW) 5,821 12.4 -11.8°
Reaches altitude 10° 16:31:43 10° 343° (NNW) 4,526 11.6 -13.2°
Maximum altitude 16:39:58 21° 27° (NNE) 3,153 10.3 -15.3°
Enters shadow 16:44:02 16° 58° (ENE) 3,161 10.1 -16.3°
